Menu Horizontal
luftaufnahme
Willkommen auf der Webseite der privaten Wetterstation -- Taufkirchen an der Pram -- 48°24'29,52" Nord  <>  13°32'13,20" Ost

Wetterdaten - Mittwoch, 24.04.2019 - Taufkirchen an der Pram     336 m über NN
Wetterdaten: aktuell Mittwoch, 24.04.2019 06:40
Datum Zeit Temp. A. Feuchte A. Luftdruck Regen Wind Sonnenschein UV Solar Windchill Empfang
24.04.2019 06:40 10,1 °C 82 % 1004,9 hPa 0,0 l/m² 0,3 km/h 0 min 0,0 UV-I 22 W/m² 10,1 °C 100 %
24.04.2019 06:30 10,2 °C 81 % 1004,7 hPa 0,0 l/m² 3,2 km/h 0 min 0,0 UV-I 16 W/m² 10,2 °C 100 %
24.04.2019 06:20 10,4 °C 81 % 1004,9 hPa 0,0 l/m² 1,4 km/h 0 min 0,0 UV-I 11 W/m² 10,4 °C 100 %
24.04.2019 06:11 10,4 °C 81 % 1004,7 hPa 0,0 l/m² 2,4 km/h 0 min 0,0 UV-I 6 W/m² 10,4 °C 100 %
24.04.2019 06:00 10,5 °C 80 % 1004,7 hPa 0,0 l/m² 1,8 km/h 0 min 0,0 UV-I 0 W/m² 10,5 °C 100 %
24.04.2019 05:50 10,6 °C 80 % 1004,6 hPa 0,0 l/m² 1,5 km/h 0 min 0,0 UV-I 0 W/m² 10,6 °C 100 %
24.04.2019 05:40 10,6 °C 80 % 1004,6 hPa 0,0 l/m² 3,6 km/h 0 min 0,0 UV-I 0 W/m² 10,6 °C 99 %
24.04.2019 05:30 10,4 °C 80 % 1004,4 hPa 0,0 l/m² 1,5 km/h 0 min 0,0 UV-I 0 W/m² 10,4 °C 91 %
24.04.2019 05:20 10,5 °C 80 % 1004,3 hPa 0,0 l/m² 0,9 km/h 0 min 0,0 UV-I 0 W/m² 10,5 °C 100 %
24.04.2019 05:10 10,5 °C 80 % 1004,2 hPa 0,0 l/m² 2,9 km/h 0 min 0,0 UV-I 0 W/m² 10,5 °C 100 %
24.04.2019 05:00 10,4 °C 80 % 1004,1 hPa 0,0 l/m² 2,2 km/h 0 min 0,0 UV-I 0 W/m² 10,4 °C 100 %
24.04.2019 04:50 10,4 °C 80 % 1004,2 hPa 0,0 l/m² 2,1 km/h 0 min 0,0 UV-I 0 W/m² 10,4 °C 99 %
24.04.2019 04:40 10,4 °C 80 % 1004,2 hPa 0,0 l/m² 2,3 km/h 0 min 0,0 UV-I 0 W/m² 10,4 °C 100 %
24.04.2019 04:30 10,3 °C 80 % 1004,2 hPa 0,0 l/m² 2,8 km/h 0 min 0,0 UV-I 0 W/m² 10,3 °C 100 %
24.04.2019 04:20 10,3 °C 80 % 1004,2 hPa 0,0 l/m² 2,0 km/h 0 min 0,0 UV-I 0 W/m² 10,3 °C 100 %
24.04.2019 04:10 10,3 °C 80 % 1004,2 hPa 0,0 l/m² 2,2 km/h 0 min 0,0 UV-I 0 W/m² 10,3 °C 100 %
24.04.2019 04:00 10,2 °C 81 % 1004,2 hPa 0,0 l/m² 3,1 km/h 0 min 0,0 UV-I 0 W/m² 10,2 °C 100 %
24.04.2019 03:50 10,3 °C 80 % 1004,2 hPa 0,0 l/m² 0,3 km/h 0 min 0,0 UV-I 0 W/m² 10,3 °C 100 %
24.04.2019 03:40 10,5 °C 79 % 1004,1 hPa 0,0 l/m² 0,1 km/h 0 min 0,0 UV-I 0 W/m² 10,5 °C 100 %
24.04.2019 03:30 10,6 °C 79 % 1004,1 hPa 0,0 l/m² 1,0 km/h 0 min 0,0 UV-I 0 W/m² 10,6 °C 100 %
24.04.2019 03:20 10,7 °C 78 % 1004,0 hPa 0,0 l/m² 2,1 km/h 0 min 0,0 UV-I 0 W/m² 10,7 °C 99 %
24.04.2019 03:10 10,9 °C 77 % 1004,0 hPa 0,0 l/m² 2,1 km/h 0 min 0,0 UV-I 0 W/m² 10,9 °C 100 %
24.04.2019 03:00 11,2 °C 77 % 1004,0 hPa 0,0 l/m² 4,3 km/h 0 min 0,0 UV-I 0 W/m² 11,2 °C 100 %
24.04.2019 02:50 11,4 °C 76 % 1004,1 hPa 0,0 l/m² 2,5 km/h 0 min 0,0 UV-I 0 W/m² 11,4 °C 100 %
24.04.2019 02:40 11,7 °C 75 % 1004,1 hPa 0,0 l/m² 3,2 km/h 0 min 0,0 UV-I 0 W/m² 11,7 °C 100 %
24.04.2019 02:30 11,8 °C 75 % 1004,1 hPa 0,0 l/m² 6,7 km/h 0 min 0,0 UV-I 0 W/m² 11,6 °C 100 %
24.04.2019 02:20 11,8 °C 75 % 1004,0 hPa 0,0 l/m² 7,5 km/h 0 min 0,0 UV-I 0 W/m² 11,1 °C 100 %
24.04.2019 02:10 11,8 °C 75 % 1004,0 hPa 0,0 l/m² 8,1 km/h 0 min 0,0 UV-I 0 W/m² 10,7 °C 100 %
24.04.2019 02:00 11,8 °C 75 % 1004,1 hPa 0,0 l/m² 8,6 km/h 0 min 0,0 UV-I 0 W/m² 10,4 °C 100 %
24.04.2019 01:50 11,9 °C 74 % 1004,2 hPa 0,0 l/m² 8,1 km/h 0 min 0,0 UV-I 0 W/m² 10,8 °C 100 %
24.04.2019 01:40 12,0 °C 74 % 1004,3 hPa 0,0 l/m² 6,9 km/h 0 min 0,0 UV-I 0 W/m² 11,7 °C 100 %
24.04.2019 01:30 12,0 °C 74 % 1004,1 hPa 0,0 l/m² 10,1 km/h 0 min 0,0 UV-I 0 W/m² 9,8 °C 100 %
24.04.2019 01:20 11,9 °C 74 % 1004,2 hPa 0,0 l/m² 9,3 km/h 0 min 0,0 UV-I 0 W/m² 10,1 °C 100 %
24.04.2019 01:10 11,9 °C 74 % 1004,2 hPa 0,0 l/m² 9,2 km/h 0 min 0,0 UV-I 0 W/m² 10,1 °C 100 %
24.04.2019 01:00 11,9 °C 74 % 1004,2 hPa 0,0 l/m² 9,7 km/h 0 min 0,0 UV-I 0 W/m² 9,9 °C 99 %
24.04.2019 00:50 12,0 °C 74 % 1004,3 hPa 0,0 l/m² 10,3 km/h 0 min 0,0 UV-I 0 W/m² 9,6 °C 100 %
24.04.2019 00:40 11,9 °C 74 % 1004,3 hPa 0,0 l/m² 10,4 km/h 0 min 0,0 UV-I 0 W/m² 9,5 °C 100 %
24.04.2019 00:30 11,9 °C 74 % 1004,2 hPa 0,0 l/m² 9,7 km/h 0 min 0,0 UV-I 0 W/m² 9,9 °C 100 %
24.04.2019 00:20 11,9 °C 74 % 1004,2 hPa 0,0 l/m² 8,8 km/h 0 min 0,0 UV-I 0 W/m² 10,4 °C 100 %
24.04.2019 00:12 12,0 °C 74 % 1004,2 hPa 0,0 l/m² 9,5 km/h 0 min 0,0 UV-I 0 W/m² 10,1 °C 100 %
24.04.2019 00:00 12,2 °C 73 % 1004,3 hPa 0,0 l/m² 10,6 km/h 0 min 0,0 UV-I 0 W/m² 9,7 °C 100 %
23.04.2019 23:50 12,2 °C 73 % 1004,2 hPa 0,0 l/m² 8,6 km/h 0 min 0,0 UV-I 0 W/m² 10,8 °C 100 %
23.04.2019 23:40 12,3 °C 73 % 1004,2 hPa 0,0 l/m² 10,2 km/h 0 min 0,0 UV-I 0 W/m² 10,0 °C 100 %
23.04.2019 23:30 12,4 °C 72 % 1004,1 hPa 0,0 l/m² 10,5 km/h 0 min 0,0 UV-I 0 W/m² 10,0 °C 100 %
23.04.2019 23:20 12,6 °C 71 % 1004,0 hPa 0,0 l/m² 12,2 km/h 0 min 0,0 UV-I 0 W/m² 9,4 °C 100 %
23.04.2019 23:10 12,6 °C 71 % 1004,0 hPa 0,0 l/m² 10,4 km/h 0 min 0,0 UV-I 0 W/m² 10,3 °C 100 %
23.04.2019 23:00 12,7 °C 70 % 1004,0 hPa 0,0 l/m² 11,2 km/h 0 min 0,0 UV-I 0 W/m² 10,0 °C 100 %
23.04.2019 22:50 12,8 °C 70 % 1004,1 hPa 0,0 l/m² 11,9 km/h 0 min 0,0 UV-I 0 W/m² 9,8 °C 100 %
23.04.2019 22:40 12,9 °C 70 % 1004,1 hPa 0,0 l/m² 10,8 km/h 0 min 0,0 UV-I 0 W/m² 10,4 °C 100 %
23.04.2019 22:30 13,1 °C 69 % 1004,0 hPa 0,0 l/m² 14,2 km/h 0 min 0,0 UV-I 0 W/m² 9,2 °C 100 %
23.04.2019 22:20 13,1 °C 69 % 1003,9 hPa 0,0 l/m² 13,2 km/h 0 min 0,0 UV-I 0 W/m² 9,6 °C 100 %
23.04.2019 22:10 13,2 °C 68 % 1004,0 hPa 0,0 l/m² 15,1 km/h 0 min 0,0 UV-I 0 W/m² 9,0 °C 100 %
23.04.2019 22:00 13,3 °C 68 % 1003,8 hPa 0,0 l/m² 16,2 km/h 0 min 0,0 UV-I 0 W/m² 8,7 °C 100 %
23.04.2019 21:50 13,4 °C 67 % 1003,8 hPa 0,0 l/m² 17,0 km/h 0 min 0,0 UV-I 0 W/m² 8,6 °C 100 %
23.04.2019 21:40 13,4 °C 67 % 1003,8 hPa 0,0 l/m² 15,2 km/h 0 min 0,0 UV-I 0 W/m² 9,2 °C 100 %
23.04.2019 21:30 13,6 °C 66 % 1003,8 hPa 0,0 l/m² 18,0 km/h 0 min 0,0 UV-I 0 W/m² 8,5 °C 100 %
23.04.2019 21:20 13,7 °C 66 % 1003,6 hPa 0,0 l/m² 16,9 km/h 0 min 0,0 UV-I 0 W/m² 9,0 °C 100 %
23.04.2019 21:10 13,8 °C 65 % 1003,6 hPa 0,0 l/m² 16,5 km/h 0 min 0,0 UV-I 0 W/m² 9,2 °C 100 %
23.04.2019 21:00 14,0 °C 64 % 1003,5 hPa 0,0 l/m² 14,8 km/h 0 min 0,0 UV-I 0 W/m² 10,1 °C 100 %
23.04.2019 20:50 14,2 °C 63 % 1003,5 hPa 0,0 l/m² 17,8 km/h 0 min 0,0 UV-I 0 W/m² 9,3 °C 100 %
23.04.2019 20:40 14,2 °C 63 % 1003,3 hPa 0,0 l/m² 15,3 km/h 0 min 0,0 UV-I 0 W/m² 10,1 °C 100 %
23.04.2019 20:30 14,4 °C 63 % 1003,3 hPa 0,0 l/m² 15,2 km/h 0 min 0,0 UV-I 0 W/m² 10,4 °C 100 %
23.04.2019 20:20 14,6 °C 62 % 1003,3 hPa 0,0 l/m² 15,9 km/h 0 min 0,0 UV-I 0 W/m² 10,4 °C 100 %
23.04.2019 20:11 14,7 °C 62 % 1003,1 hPa 0,0 l/m² 17,9 km/h 0 min 0,0 UV-I 0 W/m² 9,9 °C 100 %
23.04.2019 20:00 14,8 °C 61 % 1003,0 hPa 0,0 l/m² 18,8 km/h 0 min 0,0 UV-I 5 W/m² 9,8 °C 100 %
23.04.2019 19:50 15,0 °C 60 % 1003,0 hPa 0,0 l/m² 14,7 km/h 0 min 0,0 UV-I 12 W/m² 11,3 °C 100 %
23.04.2019 19:40 15,1 °C 60 % 1002,9 hPa 0,0 l/m² 16,6 km/h 0 min 0,0 UV-I 19 W/m² 10,8 °C 100 %
23.04.2019 19:30 15,2 °C 60 % 1002,8 hPa 0,0 l/m² 15,7 km/h 0 min 0,0 UV-I 26 W/m² 11,2 °C 100 %
23.04.2019 19:20 15,3 °C 60 % 1002,8 hPa 0,0 l/m² 18,6 km/h 0 min 0,0 UV-I 34 W/m² 10,5 °C 100 %
23.04.2019 19:10 15,3 °C 60 % 1002,7 hPa 0,0 l/m² 17,7 km/h 0 min 0,0 UV-I 42 W/m² 10,7 °C 99 %
23.04.2019 19:00 15,4 °C 60 % 1002,7 hPa 0,0 l/m² 19,0 km/h 0 min 0,0 UV-I 51 W/m² 10,5 °C 100 %
23.04.2019 18:50 15,5 °C 61 % 1002,9 hPa 0,0 l/m² 18,4 km/h 0 min 0,0 UV-I 61 W/m² 10,8 °C 100 %
23.04.2019 18:40 15,6 °C 60 % 1002,8 hPa 0,0 l/m² 16,9 km/h 0 min 0,0 UV-I 73 W/m² 11,3 °C 100 %
23.04.2019 18:30 15,6 °C 61 % 1002,8 hPa 0,0 l/m² 16,8 km/h 0 min 0,0 UV-I 81 W/m² 11,4 °C 100 %
23.04.2019 18:20 15,7 °C 61 % 1002,8 hPa 0,0 l/m² 16,6 km/h 0 min 0,0 UV-I 83 W/m² 11,6 °C 100 %
23.04.2019 18:10 15,8 °C 61 % 1002,8 hPa 0,0 l/m² 17,9 km/h 0 min 0,4 UV-I 86 W/m² 11,3 °C 100 %
23.04.2019 18:00 15,9 °C 61 % 1002,8 hPa 0,0 l/m² 18,2 km/h 0 min 0,5 UV-I 91 W/m² 11,4 °C 100 %
23.04.2019 17:50 15,9 °C 60 % 1002,8 hPa 0,0 l/m² 19,2 km/h 0 min 0,5 UV-I 99 W/m² 11,1 °C 100 %
23.04.2019 17:40 15,9 °C 60 % 1002,7 hPa 0,0 l/m² 16,6 km/h 10 min 0,6 UV-I 104 W/m² 11,8 °C 100 %
23.04.2019 17:30 15,9 °C 61 % 1002,8 hPa 0,0 l/m² 17,3 km/h 10 min 0,7 UV-I 117 W/m² 11,6 °C 100 %
23.04.2019 17:20 15,8 °C 62 % 1002,9 hPa 0,0 l/m² 16,1 km/h 8 min 0,7 UV-I 131 W/m² 11,8 °C 100 %
23.04.2019 17:12 15,7 °C 62 % 1002,8 hPa 0,0 l/m² 17,2 km/h 1 min 0,8 UV-I 143 W/m² 11,4 °C 100 %
23.04.2019 17:11 15,7 °C 64 % 1002,8 hPa 0,0 l/m² 16,6 km/h 11 min 0,8 UV-I 142 W/m² 11,6 °C 100 %
23.04.2019 17:00 16,1 °C 62 % 1002,6 hPa 0,0 l/m² 15,4 km/h 10 min 0,7 UV-I 110 W/m² 12,4 °C 100 %
23.04.2019 16:50 16,3 °C 59 % 1002,6 hPa 0,0 l/m² 20,0 km/h 10 min 0,7 UV-I 111 W/m² 11,4 °C 100 %
23.04.2019 16:40 16,6 °C 59 % 1002,7 hPa 0,0 l/m² 16,7 km/h 10 min 0,9 UV-I 139 W/m² 12,6 °C 100 %
23.04.2019 16:30 16,7 °C 59 % 1002,8 hPa 0,0 l/m² 15,0 km/h 10 min 1,0 UV-I 156 W/m² 13,3 °C 100 %
23.04.2019 16:20 16,7 °C 58 % 1002,8 hPa 0,0 l/m² 19,6 km/h 8 min 1,1 UV-I 176 W/m² 12,0 °C 99 %
23.04.2019 16:12 16,7 °C 58 % 1002,7 hPa 0,0 l/m² 20,5 km/h 12 min 1,4 UV-I 205 W/m² 11,8 °C 100 %
23.04.2019 16:00 16,7 °C 57 % 1002,5 hPa 0,0 l/m² 22,2 km/h 10 min 1,5 UV-I 249 W/m² 11,5 °C 100 %
23.04.2019 15:50 16,9 °C 56 % 1002,5 hPa 0,0 l/m² 18,9 km/h 10 min 1,7 UV-I 262 W/m² 12,5 °C 100 %
23.04.2019 15:40 16,9 °C 56 % 1002,5 hPa 0,0 l/m² 21,8 km/h 10 min 1,8 UV-I 284 W/m² 11,8 °C 100 %
23.04.2019 15:30 16,9 °C 56 % 1002,5 hPa 0,0 l/m² 21,8 km/h 10 min 1,9 UV-I 269 W/m² 11,8 °C 100 %
23.04.2019 15:20 17,2 °C 55 % 1002,3 hPa 0,0 l/m² 22,4 km/h 10 min 2,0 UV-I 297 W/m² 12,1 °C 100 %
23.04.2019 15:10 17,3 °C 54 % 1002,4 hPa 0,0 l/m² 21,7 km/h 10 min 2,1 UV-I 298 W/m² 12,4 °C 100 %
23.04.2019 15:00 17,4 °C 54 % 1002,4 hPa 0,0 l/m² 23,3 km/h 10 min 2,3 UV-I 314 W/m² 12,2 °C 100 %
23.04.2019 14:50 17,8 °C 53 % 1002,3 hPa 0,0 l/m² 22,1 km/h 9 min 2,9 UV-I 414 W/m² 12,9 °C 100 %
23.04.2019 14:41 17,8 °C 54 % 1002,4 hPa 0,0 l/m² 19,6 km/h 11 min 3,0 UV-I 449 W/m² 13,5 °C 100 %
23.04.2019 14:30 17,6 °C 54 % 1002,5 hPa 0,0 l/m² 19,0 km/h 10 min 3,0 UV-I 429 W/m² 13,3 °C 100 %
23.04.2019 14:20 17,4 °C 54 % 1002,5 hPa 0,0 l/m² 23,2 km/h 10 min 2,9 UV-I 425 W/m² 12,2 °C 100 %
23.04.2019 14:10 17,6 °C 54 % 1002,5 hPa 0,0 l/m² 21,6 km/h 10 min 2,7 UV-I 377 W/m² 12,8 °C 100 %
23.04.2019 14:00 17,7 °C 53 % 1002,5 hPa 0,0 l/m² 20,2 km/h 10 min 3,2 UV-I 456 W/m² 13,2 °C 100 %
23.04.2019 13:50 17,6 °C 52 % 1002,4 hPa 0,0 l/m² 23,2 km/h 10 min 3,3 UV-I 464 W/m² 12,5 °C 100 %
23.04.2019 13:40 17,7 °C 52 % 1002,4 hPa 0,0 l/m² 23,5 km/h 10 min 3,4 UV-I 471 W/m² 12,5 °C 100 %
23.04.2019 13:30 17,8 °C 51 % 1002,4 hPa 0,0 l/m² 24,0 km/h 10 min 3,7 UV-I 488 W/m² 12,6 °C 100 %
23.04.2019 13:20 18,3 °C 50 % 1002,3 hPa 0,0 l/m² 24,8 km/h 10 min 5,2 UV-I 858 W/m² 13,1 °C 100 %
23.04.2019 13:10 18,7 °C 49 % 1002,3 hPa 0,0 l/m² 23,0 km/h 10 min 5,6 UV-I 878 W/m² 14,0 °C 100 %
23.04.2019 13:00 18,6 °C 51 % 1002,3 hPa 0,0 l/m² 22,9 km/h 10 min 5,6 UV-I 886 W/m² 13,8 °C 100 %
23.04.2019 12:50 18,3 °C 51 % 1002,4 hPa 0,0 l/m² 20,9 km/h 10 min 5,2 UV-I 824 W/m² 13,8 °C 100 %
23.04.2019 12:40 17,7 °C 54 % 1002,5 hPa 0,0 l/m² 18,4 km/h 10 min 4,3 UV-I 670 W/m² 13,6 °C 100 %
23.04.2019 12:30 17,2 °C 53 % 1002,5 hPa 0,0 l/m² 19,7 km/h 10 min 3,3 UV-I 450 W/m² 12,7 °C 100 %
23.04.2019 12:20 17,6 °C 52 % 1002,5 hPa 0,0 l/m² 20,1 km/h 10 min 3,4 UV-I 473 W/m² 13,1 °C 100 %
23.04.2019 12:10 17,5 °C 52 % 1002,6 hPa 0,0 l/m² 21,2 km/h 10 min 4,0 UV-I 640 W/m² 12,7 °C 100 %
23.04.2019 12:00 17,2 °C 53 % 1002,6 hPa 0,0 l/m² 21,7 km/h 10 min 3,3 UV-I 483 W/m² 12,2 °C 100 %
23.04.2019 11:50 17,1 °C 53 % 1002,6 hPa 0,0 l/m² 19,8 km/h 10 min 3,3 UV-I 505 W/m² 12,5 °C 100 %
23.04.2019 11:40 16,9 °C 54 % 1002,7 hPa 0,0 l/m² 16,4 km/h 10 min 3,2 UV-I 479 W/m² 13,1 °C 100 %
23.04.2019 11:30 16,4 °C 55 % 1002,7 hPa 0,0 l/m² 19,8 km/h 10 min 3,0 UV-I 470 W/m² 11,6 °C 100 %
23.04.2019 11:20 16,2 °C 56 % 1002,7 hPa 0,0 l/m² 17,9 km/h 10 min 2,7 UV-I 415 W/m² 11,8 °C 100 %
23.04.2019 11:10 16,1 °C 56 % 1002,7 hPa 0,0 l/m² 16,3 km/h 10 min 2,5 UV-I 387 W/m² 12,1 °C 100 %
23.04.2019 11:00 15,9 °C 56 % 1002,6 hPa 0,0 l/m² 17,5 km/h 10 min 2,3 UV-I 365 W/m² 11,6 °C 100 %
23.04.2019 10:50 15,8 °C 56 % 1002,5 hPa 0,0 l/m² 19,8 km/h 10 min 2,2 UV-I 343 W/m² 10,8 °C 100 %
23.04.2019 10:40 15,8 °C 56 % 1002,5 hPa 0,0 l/m² 17,6 km/h 10 min 2,0 UV-I 315 W/m² 11,4 °C 100 %
23.04.2019 10:30 15,8 °C 57 % 1002,6 hPa 0,0 l/m² 15,0 km/h 10 min 1,9 UV-I 305 W/m² 12,2 °C 100 %
23.04.2019 10:20 15,7 °C 56 % 1002,6 hPa 0,0 l/m² 18,1 km/h 9 min 2,0 UV-I 338 W/m² 11,1 °C 99 %
23.04.2019 10:11 15,7 °C 57 % 1002,6 hPa 0,0 l/m² 16,6 km/h 11 min 2,1 UV-I 379 W/m² 11,6 °C 99 %
23.04.2019 10:00 15,3 °C 58 % 1002,6 hPa 0,0 l/m² 16,5 km/h 10 min 1,8 UV-I 334 W/m² 11,1 °C 100 %
23.04.2019 09:50 15,0 °C 58 % 1002,5 hPa 0,0 l/m² 17,0 km/h 10 min 1,6 UV-I 289 W/m² 10,6 °C 100 %
23.04.2019 09:40 14,8 °C 58 % 1002,4 hPa 0,0 l/m² 17,6 km/h 10 min 1,5 UV-I 264 W/m² 10,1 °C 100 %
23.04.2019 09:30 14,7 °C 59 % 1002,4 hPa 0,0 l/m² 17,8 km/h 10 min 1,4 UV-I 252 W/m² 10,0 °C 100 %
23.04.2019 09:20 14,6 °C 58 % 1002,4 hPa 0,0 l/m² 15,1 km/h 10 min 1,3 UV-I 244 W/m² 10,7 °C 99 %
23.04.2019 09:10 14,3 °C 59 % 1002,5 hPa 0,0 l/m² 15,2 km/h 10 min 1,2 UV-I 235 W/m² 10,3 °C 100 %
23.04.2019 09:00 14,2 °C 59 % 1002,3 hPa 0,0 l/m² 14,2 km/h 10 min 1,1 UV-I 225 W/m² 10,5 °C 100 %
23.04.2019 08:50 14,1 °C 59 % 1002,4 hPa 0,0 l/m² 13,7 km/h 10 min 1,0 UV-I 206 W/m² 10,6 °C 100 %
23.04.2019 08:40 13,9 °C 60 % 1002,3 hPa 0,0 l/m² 13,2 km/h 10 min 0,9 UV-I 194 W/m² 10,5 °C 100 %
23.04.2019 08:30 13,8 °C 60 % 1002,3 hPa 0,0 l/m² 13,1 km/h 10 min 0,8 UV-I 174 W/m² 10,4 °C 100 %
23.04.2019 08:20 13,7 °C 60 % 1002,5 hPa 0,0 l/m² 13,0 km/h 10 min 0,7 UV-I 165 W/m² 10,4 °C 100 %
23.04.2019 08:10 13,6 °C 60 % 1002,5 hPa 0,0 l/m² 13,2 km/h 10 min 0,7 UV-I 154 W/m² 10,2 °C 100 %
23.04.2019 08:00 13,4 °C 60 % 1002,5 hPa 0,0 l/m² 14,1 km/h 10 min 0,6 UV-I 143 W/m² 9,6 °C 99 %
23.04.2019 07:50 13,3 °C 61 % 1002,4 hPa 0,0 l/m² 13,6 km/h 10 min 0,5 UV-I 123 W/m² 9,7 °C 100 %
23.04.2019 07:40 13,2 °C 60 % 1002,4 hPa 0,0 l/m² 13,7 km/h 10 min 0,4 UV-I 106 W/m² 9,5 °C 100 %
23.04.2019 07:30 13,1 °C 60 % 1002,4 hPa 0,0 l/m² 12,0 km/h 0 min 0,0 UV-I 90 W/m² 10,1 °C 100 %
23.04.2019 07:20 12,9 °C 60 % 1002,4 hPa 0,0 l/m² 11,2 km/h 0 min 0,0 UV-I 73 W/m² 10,2 °C 100 %
23.04.2019 07:10 12,8 °C 61 % 1002,4 hPa 0,0 l/m² 10,1 km/h 0 min 0,0 UV-I 60 W/m² 10,6 °C 100 %
23.04.2019 07:00 12,8 °C 61 % 1002,4 hPa 0,0 l/m² 10,7 km/h 0 min 0,0 UV-I 48 W/m² 10,3 °C 100 %
_ Min-Zeit 06:40 13:10 15:20 - 03:40 - - - 21:30 05:30
Minimum _ 10,1 °C 49 % 1002,3 hPa - 0,1 km/h - - - 8,5 °C 91 %
_ Max-Zeit 13:10 06:40 06:40 06:40 13:20 16:12 13:10 13:00 13:10 06:30
Maximum _ 19,1 °C 82 % 1004,9 hPa 0,0 l/m² 24,8 km/h
O-SO
12 min 5,6 UV-I 886 W/m² 14,0 °C 100 %
Durchschnitt _ 14,0 °C 64 % 1003,2 hPa #0,0 l/m² 13,4 km/h #0 min. 0,0 UV-I 1 W/m² 10,9 °C 100 %